Mexico City Airport, Mexico

9:03 AM CDT on May 25, 2017 (GMT -0500)
Lic Benito Juarez International

Weather History for MMMX - July, 2013

Change the Weather History Date:

Wednesday, July 17, 2013

  Actual Average Record
Temperature  
Mean Temperature 65 °F -  
Max Temperature 73 °F 72 °F 78 °F (2000)
Min Temperature 57 °F 53 °F 51 °F (2000)
Growing Degree Days 15 (Base 50)    
Moisture  
Dew Point 51 °F    
Average Humidity 68    
Maximum Humidity 88    
Minimum Humidity 30    
Precipitation  
Precipitation 5.30 in - - ()
Sea Level Pressure  
Sea Level Pressure 30.23 in    
Wind  
Wind Speed 6 mph ()    
Max Wind Speed 20 mph    
Max Gust Speed -    
Visibility 7.7 miles    
Events Rain , Thunderstorm    
Averages and records for this station are not official NWS values.
T = Trace of Precipitation, MM = Missing Value Source: Averaged Metar Reports

Daily Weather History Graph

Daily Weather History Graph

Search for Another Location

Airport or City:

Trip Planner

Search our weather history database for the weather conditions in past years. The results will help you decide how hot, cold, wet, or windy it might be!

Date:

Astronomy

Jul. 17, 2013 Rise Set
Actual Time 7:07 AM CDT 8:17 PM CDT
Civil Twilight 6:43 AM CDT 8:41 PM CDT
Nautical Twilight 6:15 AM CDT 9:09 PM CDT
Astronomical Twilight 5:45 AM CDT 9:39 PM CDT
Moon 3:17 PM CDT (7/17) 2:01 AM CDT (7/17)
Length of Visible Light 13h 58m
Length of Day
13h 10m
Waxing Gibbous, 67% of the Moon is Illuminated
Jul 17
Waxing Gibbous
Jul 22
Full
Jul 29
Last Quarter
Aug 6
New
Aug 14
First Quarter

Hourly Weather History & Observations

Time (CDT) Temp. Dew Point Humidity Pressure Visibility Wind Dir Wind Speed Gust Speed Precip Events Conditions
12:54 AM 62.6 °F 51.8 °F 68% 29.82 in 15.0 mi ESE 11.5 mph - N/A   Mostly Cloudy
1:54 AM 60.8 °F 51.8 °F 72% 30.34 in 15.0 mi East 6.9 mph - N/A   Mostly Cloudy
2:54 AM 60.8 °F 51.8 °F 72% 30.32 in 15.0 mi East 5.8 mph - N/A   Mostly Cloudy
3:50 AM 59.0 °F 50.0 °F 72% 29.80 in 15.0 mi Calm Calm - N/A   Partly Cloudy
4:47 AM 59.0 °F 50.0 °F 72% 30.31 in 15.0 mi Calm Calm - N/A   Scattered Clouds
5:43 AM 59.0 °F 50.0 °F 72% 30.32 in 15.0 mi Calm Calm - N/A   Partly Cloudy
6:50 AM 57.2 °F 51.8 °F 82% 29.88 in 12.0 mi NE 4.6 mph - N/A   Mostly Cloudy
7:23 AM 57.2 °F 51.8 °F 82% 30.35 in 7.0 mi ENE 4.6 mph - N/A   Overcast
7:46 AM 57.2 °F 51.8 °F 82% 30.37 in 7.0 mi NE 4.6 mph - N/A   Mostly Cloudy
8:20 AM 59.0 °F 51.8 °F 77% 30.37 in 7.0 mi ENE 5.8 mph - N/A   Mostly Cloudy
8:46 AM 60.8 °F 51.8 °F 72% 30.37 in 7.0 mi East 3.5 mph - N/A   Scattered Clouds
9:23 AM 62.6 °F 51.8 °F 68% 30.38 in 7.0 mi NE 3.5 mph - N/A   Mostly Cloudy
9:44 AM 64.4 °F 51.8 °F 64% 29.90 in 6.0 mi ENE 4.6 mph - N/A   Mostly Cloudy
10:21 AM 66.2 °F 53.6 °F 64% 30.38 in 6.0 mi Calm Calm - N/A   Scattered Clouds
10:42 AM 68.0 °F 51.8 °F 56% 30.38 in 6.0 mi East 5.8 mph - N/A   Scattered Clouds
11:45 AM 68.0 °F 51.8 °F 56% 30.38 in 6.0 mi NNW 4.6 mph - N/A   Mostly Cloudy
12:32 PM 71.6 °F 50.0 °F 46% 30.37 in 6.0 mi NE 5.8 mph - N/A   Mostly Cloudy
12:44 PM 71.6 °F 50.0 °F 46% 29.84 in 6.0 mi NNE 5.8 mph - N/A   Mostly Cloudy
1:44 PM 73.4 °F 50.0 °F 44% 30.34 in 6.0 mi North 5.8 mph - N/A   Mostly Cloudy
2:48 PM 73.4 °F 48.2 °F 41% 30.30 in 6.0 mi North 8.1 mph - N/A   Mostly Cloudy
3:32 PM 73.4 °F 48.2 °F 41% 30.28 in 6.0 mi NE 19.6 mph - N/A   Overcast
3:43 PM 71.6 °F 50.0 °F 46% 29.78 in 6.0 mi North 18.4 mph - N/A   Overcast
4:04 PM 68.0 °F 48.2 °F 49% 30.30 in 6.0 mi North 16.1 mph - N/A Rain Light Rain
4:10 PM 66.2 °F 33.8 °F 30% 30.30 in 4.0 mi North 11.5 mph - N/A Rain , Thunderstorm Thunderstorms and Rain
4:20 PM 62.6 °F 51.8 °F 68% 30.30 in 4.0 mi NNE 13.8 mph - N/A Rain , Thunderstorm Thunderstorms and Rain
4:46 PM 60.8 °F 55.4 °F 82% 30.32 in 4.0 mi South 4.6 mph - N/A Rain , Thunderstorm Thunderstorms and Rain
5:43 PM 60.8 °F 55.4 °F 82% 30.33 in 4.0 mi SSW 9.2 mph - N/A Rain , Thunderstorm Thunderstorms and Rain
6:08 PM 60.8 °F 57.2 °F 88% 3.03 in 4.0 mi SW 11.5 mph - N/A Rain , Thunderstorm Light Thunderstorms and Rain
6:48 PM 59.0 °F 55.4 °F 88% 29.92 in 5.0 mi SW 8.1 mph - N/A Rain Light Rain
7:43 PM 59.0 °F 55.4 °F 88% 30.35 in 6.0 mi South 3.5 mph - N/A Rain Light Rain
8:46 PM 57.2 °F 53.6 °F 88% 30.39 in 7.0 mi South 4.6 mph - N/A Rain Light Rain
9:43 PM 59.0 °F 55.4 °F 88% 29.95 in 7.0 mi NW 6.9 mph - N/A Rain Light Rain
10:43 PM 57.2 °F 53.6 °F 88% 30.42 in 7.0 mi NW 3.5 mph - N/A Rain Light Rain
11:46 PM 57.2 °F 53.6 °F 88% 30.42 in 6.0 mi NNE 4.6 mph - N/A Rain Light Rain